When you browse on this site, cookies collect data to enhance your experience and personalize the content and advertising you see.
Visit our Privacy Policy to learn more. By continuing to use the site, you agree to this use of cookies and data.
  • In Austria
  • List of Countries
  • For 7 days
  • Water Temperature
  • Weather Map
  • News
  • Weather Widgets
  • user-avatar
    Login

    Hourly Weather La Paz

    Today, 28 May, Thursday

    Time Temperature Precipitation Wind Pressure Humidity
    00:00 +2°C° 0 mm 0 mps 470 mmHg 56%
    01:00 +2°C° 0 mm 0 mps 470 mmHg 55%
    02:00 +2°C° 0 mm 0 mps 470 mmHg 52%
    03:00 +2°C° 0 mm 1 mps 470 mmHg 50%
    04:00 +2°C° 0 mm 1 mps 470 mmHg 48%
    05:00 +4°C° 0 mm 1 mps 471 mmHg 46%
    06:00 +5°C° 0 mm 1 mps 473 mmHg 44%
    07:00 +7°C° 0 mm 1 mps 474 mmHg 42%
    08:00 +9°C° 0 mm 1 mps 475 mmHg 36%
    09:00 +10°C° 0 mm 1 mps 476 mmHg 31%
    10:00 +12°C° 0 mm 1 mps 477 mmHg 25%
    11:00 +13°C° 0 mm 1 mps 477 mmHg 25%
    12:00 +13°C° 0 mm 2 mps 477 mmHg 24%
    13:00 +14°C° 0 mm 2 mps 477 mmHg 23%
    14:00 +14°C° 0 mm 2 mps 476 mmHg 26%
    15:00 +13°C° 0 mm 2 mps 476 mmHg 28%
    16:00 +13°C° 0 mm 2 mps 475 mmHg 30%
    17:00 +10°C° 0 mm 1 mps 474 mmHg 39%
    18:00 +8°C° 0 mm 1 mps 473 mmHg 49%
    19:00 +6°C° 0 mm 1 mps 471 mmHg 58%
    20:00 +5°C° 0 mm 1 mps 471 mmHg 60%
    21:00 +4°C° 0 mm 0 mps 471 mmHg 62%
    22:00 +3°C° 0 mm 0 mps 471 mmHg 64%
    23:00 +3°C° 0 mm 0 mps 471 mmHg 63%

    Tomorrow, 29 May, Friday

    Time Temperature Precipitation Wind Pressure Humidity
    00:00 +3°C° 0 mm 0 mps 471 mmHg 62%
    01:00 +2°C° 0 mm 0 mps 470 mmHg 61%
    02:00 +2°C° 0 mm 0 mps 470 mmHg 60%
    03:00 +2°C° 0 mm 0 mps 470 mmHg 59%
    04:00 +2°C° 0 mm 0 mps 470 mmHg 59%
    05:00 +3°C° 0 mm 0 mps 471 mmHg 54%
    06:00 +5°C° 0 mm 0 mps 473 mmHg 50%
    07:00 +7°C° 0 mm 0 mps 475 mmHg 46%
    08:00 +8°C° 0 mm 0 mps 476 mmHg 40%
    09:00 +11°C° 0 mm 1 mps 477 mmHg 34%
    10:00 +12°C° 0 mm 1 mps 477 mmHg 29%
    11:00 +13°C° 0 mm 1 mps 477 mmHg 30%
    12:00 +14°C° 0 mm 2 mps 477 mmHg 30%
    13:00 +14°C° 0 mm 2 mps 477 mmHg 31%
    14:00 +13°C° 0 mm 2 mps 476 mmHg 37%
    15:00 +13°C° 0 mm 2 mps 475 mmHg 42%
    16:00 +12°C° 0 mm 2 mps 474 mmHg 48%
    17:00 +10°C° 0 mm 1 mps 473 mmHg 56%
    18:00 +8°C° 0 mm 1 mps 472 mmHg 65%
    19:00 +5°C° 0 mm 0 mps 471 mmHg 73%
    20:00 +6°C° 0 mm 1 mps 472 mmHg 74%
    21:00 +6°C° 0 mm 1 mps 472 mmHg 74%
    22:00 +5°C° 0 mm 1 mps 472 mmHg 75%
    23:00 +5°C° 0 mm 1 mps 471 mmHg 75%

    Day after tomorrow, 30 May, Saturday

    Time Temperature Precipitation Wind Pressure Humidity
    00:00 +5°C° 0 mm 1 mps 471 mmHg 75%
    01:00 +4°C° 0 mm 1 mps 471 mmHg 75%
    02:00 +4°C° 0 mm 1 mps 471 mmHg 74%
    03:00 +3°C° 0 mm 1 mps 470 mmHg 72%
    04:00 +3°C° 0 mm 1 mps 470 mmHg 71%
    05:00 +4°C° 0 mm 1 mps 471 mmHg 63%
    06:00 +4°C° 0 mm 0 mps 472 mmHg 56%
    07:00 +6°C° 0 mm 0 mps 474 mmHg 48%
    08:00 +8°C° 0 mm 1 mps 474 mmHg 43%
    09:00 +10°C° 0 mm 1 mps 475 mmHg 38%
    10:00 +12°C° 0 mm 1 mps 476 mmHg 33%
    11:00 +12°C° 0 mm 2 mps 476 mmHg 34%
    12:00 +13°C° 0 mm 2 mps 476 mmHg 34%
    13:00 +14°C° 0 mm 2 mps 476 mmHg 35%
    14:00 +13°C° 0 mm 2 mps 475 mmHg 38%
    15:00 +11°C° 0 mm 3 mps 474 mmHg 41%
    16:00 +11°C° 0 mm 3 mps 474 mmHg 44%
    17:00 +9°C° 0 mm 2 mps 473 mmHg 51%
    18:00 +7°C° 0 mm 2 mps 472 mmHg 58%
    19:00 +6°C° 0 mm 1 mps 471 mmHg 64%
    20:00 +6°C° 0 mm 1 mps 471 mmHg 67%
    21:00 +5°C° 0 mm 1 mps 471 mmHg 69%
    22:00 +4°C° 0 mm 0 mps 471 mmHg 71%
    23:00 +3°C° 0 mm 0 mps 471 mmHg 71%

    31 May, Sunday

    Time Temperature Precipitation Wind Pressure Humidity
    00:00 +4°C° 0 mm 1 mps 471 mmHg 70%
    01:00 +4°C° 0 mm 1 mps 471 mmHg 70%
    02:00 +4°C° 0 mm 1 mps 470 mmHg 70%
    03:00 +3°C° 0 mm 1 mps 470 mmHg 71%
    04:00 +3°C° 0 mm 1 mps 470 mmHg 71%
    05:00 +4°C° 0 mm 1 mps 471 mmHg 66%
    06:00 +6°C° 0 mm 1 mps 473 mmHg 61%
    07:00 +7°C° 0 mm 1 mps 474 mmHg 56%
    08:00 +9°C° 0 mm 1 mps 475 mmHg 52%
    09:00 +9°C° 0 mm 2 mps 476 mmHg 47%
    10:00 +12°C° 0 mm 2 mps 477 mmHg 42%
    11:00 +12°C° 0 mm 3 mps 477 mmHg 41%
    12:00 +12°C° 0 mm 3 mps 477 mmHg 39%
    13:00 +13°C° 0 mm 4 mps 476 mmHg 37%
    14:00 +12°C° 0 mm 4 mps 476 mmHg 36%
    15:00 +12°C° 0 mm 4 mps 475 mmHg 34%
    16:00 +11°C° 0 mm 4 mps 474 mmHg 33%
    17:00 +9°C° 0 mm 3 mps 473 mmHg 42%
    18:00 +7°C° 0 mm 2 mps 472 mmHg 50%
    19:00 +6°C° 0 mm 1 mps 471 mmHg 59%
    20:00 +6°C° 0 mm 1 mps 471 mmHg 63%
    21:00 +5°C° 0 mm 1 mps 472 mmHg 68%
    22:00 +5°C° 0 mm 1 mps 472 mmHg 72%
    23:00 +4°C° 0 mm 1 mps 471 mmHg 76%

    1 June, Monday

    Time Temperature Precipitation Wind Pressure Humidity
    00:00 +4°C° 0 mm 1 mps 471 mmHg 79%
    01:00 +4°C° 0 mm 1 mps 471 mmHg 83%
    02:00 +3°C° 0 mm 1 mps 471 mmHg 83%
    03:00 +3°C° 0 mm 1 mps 471 mmHg 82%
    04:00 +3°C° 0 mm 1 mps 470 mmHg 82%
    05:00 +4°C° 0 mm 1 mps 472 mmHg 75%
    06:00 +5°C° 0 mm 1 mps 473 mmHg 68%
    07:00 +6°C° 0 mm 1 mps 474 mmHg 61%
    08:00 +7°C° 0 mm 2 mps 475 mmHg 53%
    09:00 +8°C° 0 mm 4 mps 476 mmHg 45%
    10:00 +10°C° 0 mm 5 mps 477 mmHg 37%
    11:00 +10°C° 0 mm 6 mps 477 mmHg 35%
    12:00 +11°C° 0 mm 7 mps 477 mmHg 33%
    13:00 +12°C° 0 mm 8 mps 476 mmHg 31%
    14:00 +11°C° 0 mm 6 mps 476 mmHg 33%
    15:00 +12°C° 0 mm 5 mps 475 mmHg 35%
    16:00 +11°C° 0 mm 4 mps 475 mmHg 37%
    17:00 +8°C° 0 mm 4 mps 474 mmHg 41%
    18:00 +6°C° 0 mm 4 mps 473 mmHg 45%
    19:00 +4°C° 0 mm 3 mps 473 mmHg 49%
    20:00 +4°C° 0 mm 3 mps 472 mmHg 47%
    21:00 +4°C° 0 mm 2 mps 472 mmHg 45%
    22:00 +3°C° 0 mm 2 mps 472 mmHg 42%
    23:00 +3°C° 0 mm 1 mps 472 mmHg 42%

    2 June, Tuesday

    Time Temperature Precipitation Wind Pressure Humidity
    00:00 +3°C° 0 mm 1 mps 471 mmHg 42%
    01:00 +2°C° 0 mm 1 mps 471 mmHg 43%
    02:00 +2°C° 0 mm 1 mps 470 mmHg 44%
    03:00 +2°C° 0 mm 1 mps 470 mmHg 45%
    04:00 +1°C° 0 mm 1 mps 470 mmHg 46%
    05:00 +3°C° 0 mm 1 mps 471 mmHg 43%
    06:00 +4°C° 0 mm 1 mps 472 mmHg 40%
    07:00 +4°C° 0 mm 2 mps 473 mmHg 37%
    08:00 +6°C° 0 mm 2 mps 474 mmHg 36%
    09:00 +8°C° 0 mm 2 mps 475 mmHg 35%
    10:00 +10°C° 0 mm 3 mps 476 mmHg 34%
    11:00 +10°C° 0 mm 4 mps 476 mmHg 33%
    12:00 +11°C° 0 mm 4 mps 476 mmHg 33%
    13:00 +12°C° 0 mm 5 mps 476 mmHg 33%
    14:00 +10°C° 0 mm 5 mps 475 mmHg 34%
    15:00 +10°C° 0 mm 5 mps 474 mmHg 35%
    16:00 +10°C° 0 mm 4 mps 474 mmHg 37%
    17:00 +8°C° 0 mm 3 mps 473 mmHg 43%
    18:00 +7°C° 0 mm 3 mps 472 mmHg 49%
    19:00 +5°C° 0 mm 2 mps 471 mmHg 55%
    20:00 +4°C° 0 mm 2 mps 471 mmHg 50%
    21:00 +4°C° 0 mm 1 mps 471 mmHg 44%
    22:00 +4°C° 0 mm 1 mps 471 mmHg 39%
    23:00 +3°C° 0 mm 1 mps 470 mmHg 37%
    Show more